Everett, WA

9:09 AM PST on December 11, 2019 (GMT -0800)
Snohomish County

Weather History for KPAE - October, 2019

Change the Weather History Date:

Thursday, October 10, 2019

  Actual Average Record
Temperature  
Mean Temperature 45 °F -  
Max Temperature 53 °F 61 °F 73 °F (1989)
Min Temperature 37 °F 43 °F 35 °F (1960)
Degree Days  
Heating Degree Days 20    
Moisture  
Dew Point 35 °F    
Average Humidity 70    
Maximum Humidity 89    
Minimum Humidity 50    
Precipitation  
Precipitation 0.00 in - - ()
Sea Level Pressure  
Sea Level Pressure 30.42 in    
Wind  
Wind Speed 5 mph (NE)    
Max Wind Speed 8 mph    
Max Gust Speed -    
Visibility 10 miles    
Events      
Averages and records for this station are not official NWS values.
T = Trace of Precipitation, MM = Missing Value Source: NWS Daily Summary

Daily Weather History Graph

Daily Weather History Graph

Search for Another Location

Airport or City:

Astronomy

Oct. 10, 2019 Rise Set
Actual Time 7:20 AM PDT 6:30 PM PDT
Civil Twilight 6:49 AM PDT 7:01 PM PDT
Nautical Twilight 6:13 AM PDT 7:37 PM PDT
Astronomical Twilight 5:37 AM PDT 8:13 PM PDT
Moon 5:52 PM PDT (10/10) 3:49 AM PDT (10/10)
Length of Visible Light 12h 11m
Length of Day
11h 09m
Waxing Gibbous, 91% of the Moon is Illuminated
Oct 10
Waxing Gibbous
Oct 13
Full
Oct 21
Last Quarter
Oct 27
New
Nov 4
First Quarter

Hourly Weather History & Observations

Time (PDT) Temp. Windchill Dew Point Humidity Pressure Visibility Wind Dir Wind Speed Gust Speed Precip Events Conditions
12:53 AM 39.9 °F 34.5 °F 33.1 °F 77% 30.47 in 10.0 mi East 8.1 mph - N/A   Clear
1:53 AM 39.0 °F 34.0 °F 34.0 °F 82% 30.47 in 10.0 mi ESE 6.9 mph - N/A   Clear
2:53 AM 37.0 °F 31.6 °F 34.0 °F 89% 30.47 in 10.0 mi ESE 6.9 mph - N/A   Clear
3:53 AM 37.0 °F 33.3 °F 34.0 °F 89% 30.47 in 10.0 mi East 4.6 mph - N/A   Clear
4:53 AM 37.0 °F - 33.1 °F 86% 30.47 in 10.0 mi Calm Calm - N/A   Clear
5:53 AM 37.0 °F 34.5 °F 33.1 °F 86% 30.48 in 10.0 mi East 3.5 mph - N/A   Clear
6:53 AM 37.0 °F 34.5 °F 33.1 °F 86% 30.48 in 10.0 mi ESE 3.5 mph - N/A   Clear
7:53 AM 37.0 °F 32.4 °F 33.1 °F 86% 30.48 in 10.0 mi East 5.8 mph - N/A   Clear
8:53 AM 42.1 °F - 34.0 °F 73% 30.48 in 10.0 mi Calm Calm - N/A   Unknown
10:53 AM 46.9 °F - 34.0 °F 61% 30.47 in 10.0 mi Variable 4.6 mph - N/A   Clear
11:53 AM 48.0 °F - 34.0 °F 58% 30.46 in 10.0 mi Variable 3.5 mph - N/A   Clear
12:53 PM 48.9 °F - 34.0 °F 56% 30.45 in 10.0 mi Calm Calm - N/A   Clear
1:53 PM 51.1 °F - 34.0 °F 52% 30.43 in 10.0 mi North 4.6 mph - N/A   Clear
2:53 PM 51.1 °F - 35.1 °F 54% 30.41 in 10.0 mi NNW 4.6 mph - N/A   Clear
3:53 PM 53.1 °F - 35.1 °F 50% 30.39 in 10.0 mi North 3.5 mph - N/A   Clear
4:53 PM 52.0 °F - 34.0 °F 50% 30.38 in 10.0 mi North 5.8 mph - N/A   Clear
5:53 PM 48.9 °F - 35.1 °F 59% 30.37 in 10.0 mi NNW 4.6 mph - N/A   Clear
6:53 PM 46.9 °F - 34.0 °F 61% 30.35 in 10.0 mi North 3.5 mph - N/A   Clear
7:53 PM 46.0 °F 44.8 °F 36.0 °F 68% 30.34 in 10.0 mi North 3.5 mph - N/A   Clear
8:53 PM 46.0 °F 43.9 °F 35.1 °F 66% 30.34 in 10.0 mi North 4.6 mph - N/A   Clear
9:53 PM 44.1 °F 42.5 °F 37.0 °F 76% 30.34 in 10.0 mi North 3.5 mph - N/A   Clear
10:53 PM 44.1 °F - 37.9 °F 79% 30.32 in 10.0 mi Calm Calm - N/A   Clear
11:53 PM 44.1 °F 42.5 °F 37.0 °F 76% 30.31 in 10.0 mi NE 3.5 mph - N/A   Clear